TimeAKST,TemperatureF,Dew PointF,Humidity,Sea Level PressureIn,VisibilityMPH,Wind Direction,Wind SpeedMPH,Gust SpeedMPH,PrecipitationIn,Events,Conditions,WindDirDegrees,DateUTC
12:11 AM,33.8,33.8,100,29.86,10.0,SSE,3.5,-,N/A,,Mostly Cloudy,150,2013-02-19 09:11:00
12:53 AM,34.0,34.0,100,29.87,10.0,Calm,Calm,-,N/A,,Overcast,0,2013-02-19 09:53:00
1:53 AM,33.1,33.1,100,29.89,10.0,Calm,Calm,-,N/A,,Overcast,0,2013-02-19 10:53:00
2:06 AM,33.8,33.8,100,29.89,10.0,Calm,Calm,-,N/A,,Overcast,0,2013-02-19 11:06:00
3:53 AM,34.0,34.0,100,29.90,10.0,SE,3.5,-,N/A,,Overcast,130,2013-02-19 12:53:00
4:53 AM,34.0,34.0,100,29.91,10.0,South,3.5,-,N/A,,Overcast,180,2013-02-19 13:53:00
5:25 AM,33.8,33.8,100,29.90,10.0,Calm,Calm,-,N/A,,Overcast,0,2013-02-19 14:25:00
5:34 AM,33.8,33.8,100,29.89,10.0,Calm,Calm,-,N/A,,Overcast,0,2013-02-19 14:34:00
5:41 AM,33.8,33.8,100,29.89,10.0,SSE,3.5,-,N/A,,Overcast,150,2013-02-19 14:41:00
5:53 AM,33.1,33.1,100,29.90,10.0,Calm,Calm,-,N/A,,Mostly Cloudy,0,2013-02-19 14:53:00
5:58 AM,33.8,33.8,100,29.90,10.0,Calm,Calm,-,N/A,,Mostly Cloudy,0,2013-02-19 14:58:00
6:53 AM,33.1,33.1,100,29.93,7.0,South,3.5,-,N/A,,Overcast,190,2013-02-19 15:53:00
7:53 AM,34.0,34.0,100,29.96,10.0,Calm,Calm,-,N/A,,Overcast,0,2013-02-19 16:53:00
8:53 AM,36.0,36.0,100,29.94,10.0,SE,4.6,-,N/A,,Overcast,130,2013-02-19 17:53:00
9:53 AM,37.0,37.0,100,29.94,10.0,ESE,5.8,-,N/A,,Overcast,120,2013-02-19 18:53:00
10:53 AM,39.0,37.9,96,29.96,10.0,ESE,5.8,-,N/A,,Overcast,120,2013-02-19 19:53:00
11:53 AM,41.0,37.9,89,29.94,10.0,SE,5.8,-,N/A,,Overcast,130,2013-02-19 20:53:00
12:53 PM,41.0,37.0,86,29.93,10.0,SSE,6.9,-,N/A,,Overcast,150,2013-02-19 21:53:00
1:53 PM,41.0,37.0,86,29.93,10.0,SE,6.9,-,N/A,,Overcast,140,2013-02-19 22:53:00
3:53 PM,39.9,39.0,97,29.92,10.0,SE,9.2,-,0.01,,Overcast,140,2013-02-20 00:53:00
4:53 PM,39.0,39.0,100,29.90,10.0,SE,10.4,-,0.00,,Overcast,140,2013-02-20 01:53:00
5:51 PM,37.4,37.4,100,29.88,9.0,SSE,5.8,-,0.03,Rain,Light Rain,150,2013-02-20 02:51:00
5:53 PM,37.9,37.9,100,29.88,10.0,SSE,6.9,-,0.03,Rain,Light Rain,150,2013-02-20 02:53:00
6:53 PM,39.0,39.0,100,29.87,10.0,SSE,10.4,-,0.01,Rain,Light Rain,150,2013-02-20 03:53:00
7:53 PM,39.0,39.0,100,29.85,10.0,SSE,6.9,-,0.01,Rain,Light Rain,160,2013-02-20 04:53:00
8:53 PM,39.0,39.0,100,29.82,7.0,SE,12.7,-,0.03,Rain,Light Rain,130,2013-02-20 05:53:00
9:07 PM,39.2,39.2,100,29.80,4.0,SE,10.4,-,0.00,Rain,Light Rain,140,2013-02-20 06:07:00
9:20 PM,39.2,39.2,100,29.80,8.0,SE,11.5,-,0.01,Rain,Light Rain,140,2013-02-20 06:20:00
9:53 PM,39.0,39.0,100,29.79,9.0,SSE,9.2,-,0.02,Rain,Light Rain,150,2013-02-20 06:53:00
10:53 PM,39.0,37.9,96,29.76,10.0,SSE,11.5,-,0.00,,Overcast,150,2013-02-20 07:53:00
11:53 PM,39.0,37.9,96,29.74,10.0,SSE,9.2,-,0.00,Rain,Light Rain,150,2013-02-20 08:53:00